Weather History for KRMN - April, 2013

Change the Weather History Date:

Tuesday, April 30, 2013

  Actual Average (KNYG) Record (KNYG)
Temperature  
Mean Temperature 58 °F -  
Max Temperature 60 °F 68 °F 87 °F (2007)
Min Temperature 55 °F 48 °F 39 °F (2006)
Degree Days  
Heating Degree Days 8    
Growing Degree Days 8 (Base 50)    
Moisture  
Dew Point 57 °F    
Average Humidity 98    
Maximum Humidity 100    
Minimum Humidity 92    
Precipitation  
Precipitation 0.07 in - - ()
Sea Level Pressure  
Sea Level Pressure 30.21 in    
Wind  
Wind Speed 5 mph (NE)    
Max Wind Speed 12 mph    
Max Gust Speed -    
Visibility 6 miles    
Events Rain    
Averages and records for this station are not official NWS values.
T = Trace of Precipitation, MM = Missing Value Source: NWS Daily Summary

Daily Weather History Graph

Daily Weather History Graph

Search for Another Location

Airport or City:

Trip Planner

Search our weather history database for the weather conditions in past years. The results will help you decide how hot, cold, wet, or windy it might be!

Date:

Astronomy

Apr. 30, 2013 Rise Set
Actual Time 6:13 AM EDT 8:00 PM EDT
Civil Twilight 5:45 AM EDT 8:29 PM EDT
Nautical Twilight 5:10 AM EDT 9:03 PM EDT
Astronomical Twilight 4:34 AM EDT 9:40 PM EDT
Moon 12:21 AM EDT 10:41 AM EDT
Length of Visible Light 14h 43m
Length of Day
13h 46m
Waning Gibbous, 70% of the Moon is Illuminated
Apr 30
Waning Gibbous
May 2
Last Quarter
May 9
New
May 18
First Quarter
May 25
Full

Hourly Weather History & Observations

Time (EDT) Temp. Dew Point Humidity Pressure Visibility Wind Dir Wind Speed Gust Speed Precip Events Conditions
12:15 AM 56.3 °F 56.3 °F 100% 30.13 in 3.0 mi NNE 3.5 mph - N/A   Overcast
12:35 AM 56.3 °F 56.3 °F 100% 30.13 in 3.0 mi NE 5.8 mph - N/A   Overcast
12:55 AM 56.3 °F 56.3 °F 100% 30.13 in 3.0 mi ENE 6.9 mph - N/A   Overcast
1:15 AM 55.9 °F 55.9 °F 100% 30.13 in 3.0 mi NNE 4.6 mph - N/A   Overcast
1:35 AM 55.9 °F 55.9 °F 100% 30.13 in 2.5 mi NE 4.6 mph - N/A   Overcast
1:55 AM 55.9 °F 55.9 °F 100% 30.13 in 5.0 mi NNE 3.5 mph - N/A   Overcast
2:15 AM 55.8 °F 55.8 °F 100% 30.12 in 7.0 mi NNE 3.5 mph - N/A   Overcast
2:35 AM 55.8 °F 55.6 °F 99% 30.12 in 10.0 mi NNE 3.5 mph - N/A   Overcast
2:55 AM 55.8 °F 55.6 °F 99% 30.12 in 10.0 mi NNE 3.5 mph - N/A   Overcast
3:15 AM 55.8 °F 55.6 °F 99% 30.12 in 10.0 mi NNE 3.5 mph - N/A   Overcast
3:35 AM 55.8 °F 55.6 °F 99% 30.12 in 10.0 mi NNE 3.5 mph - N/A   Overcast
3:55 AM 55.8 °F 55.6 °F 99% 30.13 in 7.0 mi NNE 5.8 mph - N/A   Overcast
4:15 AM 55.8 °F 55.8 °F 100% 30.13 in 5.0 mi North 5.8 mph - N/A   Overcast
4:35 AM 55.8 °F 55.8 °F 100% 30.13 in 5.0 mi North 4.6 mph - N/A   Overcast
4:55 AM 55.8 °F 55.8 °F 100% 30.14 in 3.0 mi Calm Calm - N/A   Overcast
5:15 AM 55.6 °F 55.6 °F 100% 30.14 in 3.0 mi North 3.5 mph - N/A   Overcast
5:35 AM 55.8 °F 55.8 °F 100% 30.15 in 2.5 mi North 3.5 mph - N/A   Drizzle
5:55 AM 55.8 °F 55.8 °F 100% 30.15 in 3.0 mi North 3.5 mph - N/A   Light Drizzle
6:15 AM 55.8 °F 55.8 °F 100% 30.15 in 3.0 mi North 3.5 mph - N/A   Light Drizzle
6:35 AM 55.8 °F 55.8 °F 100% 30.17 in 2.5 mi NNW 3.5 mph - N/A   Overcast
6:55 AM 55.8 °F 55.8 °F 100% 30.18 in 4.0 mi North 3.5 mph - N/A   Overcast
7:15 AM 56.3 °F 56.3 °F 100% 30.18 in 7.0 mi Calm Calm - N/A   Overcast
7:35 AM 56.3 °F 56.3 °F 100% 30.19 in 5.0 mi North 4.6 mph - N/A   Overcast
7:55 AM 56.3 °F 56.3 °F 100% 30.19 in 2.0 mi North 3.5 mph - N/A   Overcast
8:15 AM 56.5 °F 56.5 °F 100% 30.20 in 1.8 mi NNE 3.5 mph - N/A   Light Drizzle
8:35 AM 56.8 °F 56.8 °F 100% 30.20 in 1.5 mi Calm Calm - N/A   Light Drizzle
8:55 AM 57.2 °F 57.2 °F 100% 30.21 in 5.0 mi Calm Calm - N/A   Overcast
9:15 AM 57.6 °F 57.2 °F 99% 30.21 in 10.0 mi NE 4.6 mph - N/A   Overcast
9:35 AM 58.1 °F 57.6 °F 98% 30.22 in 10.0 mi NNE 4.6 mph - N/A   Overcast
9:55 AM 58.5 °F 57.9 °F 98% 30.21 in 10.0 mi NE 4.6 mph - N/A   Overcast
10:15 AM 59.2 °F 58.1 °F 96% 30.21 in 10.0 mi NE 6.9 mph - N/A   Overcast
10:35 AM 59.2 °F 58.1 °F 96% 30.22 in 10.0 mi NNE 5.8 mph - N/A   Overcast
10:55 AM 59.5 °F 58.3 °F 96% 30.22 in 10.0 mi NNE 5.8 mph - 0.01 in   Overcast
11:15 AM 60.1 °F 58.3 °F 94% 30.21 in 10.0 mi NNE 4.6 mph - N/A   Overcast
11:35 AM 60.3 °F 58.5 °F 94% 30.22 in 7.0 mi NE 5.8 mph - N/A   Overcast
11:55 AM 59.9 °F 58.3 °F 94% 30.22 in 7.0 mi NNE 5.8 mph - N/A Rain Light Rain
12:15 PM 59.4 °F 58.5 °F 97% 30.22 in 3.0 mi NE 4.6 mph - N/A   Overcast
12:35 PM 59.5 °F 58.3 °F 96% 30.22 in 10.0 mi ENE 3.5 mph - N/A   Overcast
12:55 PM 60.1 °F 59.2 °F 97% 30.22 in 3.0 mi ENE 5.8 mph - N/A   Overcast
1:15 PM 60.1 °F 59.4 °F 97% 30.22 in 2.5 mi ENE 6.9 mph - N/A Rain Light Rain
1:35 PM 59.2 °F 58.6 °F 98% 30.22 in 1.2 mi NE 6.9 mph - N/A   Overcast
1:55 PM 59.0 °F 58.3 °F 97% 30.22 in 3.0 mi NE 8.1 mph - N/A   Overcast
2:15 PM 59.0 °F 58.3 °F 97% 30.22 in 3.0 mi NNE 8.1 mph - N/A   Overcast
2:35 PM 59.4 °F 58.1 °F 96% 30.23 in 10.0 mi ENE 4.6 mph - N/A   Overcast
2:55 PM 59.9 °F 58.8 °F 96% 30.23 in 2.5 mi ENE 5.8 mph - N/A   Overcast
3:15 PM 60.4 °F 59.4 °F 96% 30.23 in 2.5 mi NE 8.1 mph - N/A   Overcast
3:35 PM 59.5 °F 58.6 °F 97% 30.23 in 1.8 mi ENE 8.1 mph - N/A   Overcast
3:55 PM 59.4 °F 58.3 °F 96% 30.24 in 2.5 mi ENE 10.4 mph - N/A   Overcast
4:15 PM 59.4 °F 58.5 °F 97% 30.25 in 2.5 mi NE 10.4 mph - N/A   Overcast
4:35 PM 59.0 °F 57.7 °F 96% 30.24 in 3.0 mi ENE 6.9 mph - N/A   Overcast
4:55 PM 59.0 °F 57.9 °F 96% 30.25 in 4.0 mi NE 4.6 mph - N/A   Overcast
5:15 PM 58.6 °F 58.1 °F 98% 30.25 in 2.5 mi ENE 6.9 mph - N/A   Drizzle
5:35 PM 58.5 °F 57.7 °F 97% 30.26 in 1.8 mi ENE 10.4 mph - 0.01 in   Light Drizzle
5:55 PM 58.1 °F 57.6 °F 98% 30.26 in 2.0 mi NNE 6.9 mph - 0.02 in   Drizzle
6:15 PM 58.1 °F 57.4 °F 97% 30.26 in 3.0 mi NE 8.1 mph - N/A   Drizzle
6:35 PM 58.1 °F 57.4 °F 97% 30.26 in 3.0 mi NE 6.9 mph - N/A   Drizzle
6:55 PM 57.7 °F 57.2 °F 98% 30.27 in 4.0 mi NE 6.9 mph - 0.01 in   Drizzle
7:15 PM 57.6 °F 57.2 °F 99% 30.27 in 4.0 mi NE 8.1 mph - 0.01 in   Heavy Drizzle
7:35 PM 57.6 °F 57.2 °F 99% 30.28 in 5.0 mi NE 6.9 mph - 0.02 in   Light Drizzle
7:55 PM 57.6 °F 57.2 °F 99% 30.28 in 4.0 mi NE 6.9 mph - 0.02 in Rain Rain
8:15 PM 57.4 °F 56.8 °F 98% 30.28 in 5.0 mi ENE 6.9 mph - 0.01 in   Drizzle
8:35 PM 57.6 °F 57.2 °F 99% 30.29 in 10.0 mi NE 6.9 mph - 0.01 in   Light Drizzle
8:55 PM 57.4 °F 56.5 °F 97% 30.30 in 7.0 mi ENE 11.5 mph - 0.01 in   Overcast
9:15 PM 57.0 °F 56.1 °F 97% 30.31 in 10.0 mi ENE 4.6 mph - N/A   Overcast
9:35 PM 56.7 °F 54.5 °F 92% 30.31 in 10.0 mi NE 5.8 mph - N/A   Overcast
9:55 PM 56.3 °F 54.0 °F 92% 30.31 in 10.0 mi ENE 5.8 mph - N/A   Overcast
10:15 PM 55.9 °F 54.1 °F 94% 30.31 in 10.0 mi Calm Calm - N/A   Overcast
10:35 PM 55.9 °F 54.1 °F 94% 30.31 in 10.0 mi Calm Calm - N/A   Overcast
10:55 PM 55.8 °F 54.0 °F 94% 30.31 in 10.0 mi Calm Calm - N/A   Overcast
11:15 PM 55.4 °F 54.1 °F 96% 30.31 in 10.0 mi North 3.5 mph - N/A   Overcast
11:35 PM 55.4 °F 54.3 °F 96% 30.31 in 10.0 mi North 3.5 mph - N/A   Overcast
11:55 PM 55.8 °F 54.1 °F 94% 30.31 in 10.0 mi North 3.5 mph - N/A   Overcast